TimeEST,TemperatureF,Dew PointF,Humidity,Sea Level PressureIn,VisibilityMPH,Wind Direction,Wind SpeedMPH,Gust SpeedMPH,PrecipitationIn,Events,Conditions,WindDirDegrees,DateUTC
12:55 AM,61.0,59.0,93,30.22,10.0,NNW,11.5,-,N/A,,Clear,330,2012-11-29 05:55:00
1:55 AM,61.7,59.5,93,30.21,10.0,NNW,12.7,-,N/A,,Clear,330,2012-11-29 06:55:00
2:55 AM,62.2,59.5,91,30.22,10.0,NNW,12.7,-,N/A,,Mostly Cloudy,330,2012-11-29 07:55:00
3:55 AM,62.1,59.5,91,30.21,10.0,NW,10.4,-,N/A,,Clear,310,2012-11-29 08:55:00
4:55 AM,62.4,59.7,91,30.22,10.0,NNW,9.2,-,N/A,,Scattered Clouds,330,2012-11-29 09:55:00
5:55 AM,66.4,59.5,79,30.23,10.0,NNE,5.8,-,N/A,,Clear,30,2012-11-29 10:55:00
6:55 AM,66.9,59.7,78,30.24,10.0,ENE,9.2,-,N/A,,Clear,60,2012-11-29 11:55:00
7:55 AM,68.9,58.3,69,30.26,10.0,ENE,9.2,-,N/A,,Clear,60,2012-11-29 12:55:00
8:55 AM,71.4,60.6,69,30.27,10.0,NE,11.5,-,N/A,,Clear,50,2012-11-29 13:55:00
9:55 AM,72.5,60.6,66,30.29,10.0,NE,13.8,-,N/A,,Clear,50,2012-11-29 14:55:00
10:55 AM,73.4,60.6,64,30.29,10.0,NE,15.0,-,N/A,,Clear,40,2012-11-29 15:55:00
11:55 AM,73.6,59.9,62,30.29,10.0,NE,15.0,-,N/A,,Clear,40,2012-11-29 16:55:00
12:55 PM,73.6,60.8,64,30.27,10.0,NE,15.0,-,N/A,,Clear,40,2012-11-29 17:55:00
1:55 PM,73.4,59.7,62,30.25,10.0,NE,15.0,-,N/A,,Clear,40,2012-11-29 18:55:00
2:55 PM,72.3,59.7,64,30.25,10.0,NE,12.7,-,N/A,,Scattered Clouds,40,2012-11-29 19:55:00
3:55 PM,71.6,58.1,62,30.25,10.0,NE,11.5,-,N/A,,Clear,40,2012-11-29 20:55:00
4:55 PM,69.8,58.8,68,30.25,10.0,NNE,9.2,-,N/A,,Clear,30,2012-11-29 21:55:00
5:55 PM,68.4,59.0,72,30.25,10.0,NE,8.1,-,N/A,,Partly Cloudy,40,2012-11-29 22:55:00
6:55 PM,68.2,59.9,75,30.26,10.0,NE,10.4,-,N/A,,Clear,40,2012-11-29 23:55:00
7:55 PM,68.4,59.0,72,30.26,10.0,NE,12.7,-,N/A,,Partly Cloudy,40,2012-11-30 00:55:00
8:55 PM,68.7,59.4,72,30.26,10.0,NE,11.5,-,N/A,,Scattered Clouds,50,2012-11-30 01:55:00
9:55 PM,69.1,58.1,68,30.27,10.0,ENE,15.0,-,N/A,,Partly Cloudy,60,2012-11-30 02:55:00
10:55 PM,69.3,59.0,70,30.27,10.0,ENE,12.7,-,N/A,,Overcast,60,2012-11-30 03:55:00
11:55 PM,68.7,57.7,68,30.25,10.0,ENE,13.8,-,N/A,,Clear,60,2012-11-30 04:55:00